Regional Weather Roundup
Issued by NWS

Home | Current Version | Previous Version | Graphics & Text | Print | Product List | Glossary On
Versions: 1 2 3 4 5 6 7 8 9 10 11 12 13 14 15 16 17 18 19 20 21 22 23 24 25 26 27 28 29 30 31 32 33 34 35 36 37 38 39 40 41 42 43 44 45 46 47 48 49 50
000
ASUS45 KBOU 281710
RWRCO

WEATHER ROUNDUP FOR COLORADO
NATIONAL WEATHER SERVICE DENVER/BOULDER CO
1100 AM MDT WED SEP 28 2016

NOTE: "FAIR" INDICATES FEW OR NO CLOUDS BELOW 12000 FEET WITH NO
SIGNIFICANT WEATHER AND/OR OBSTRUCTIONS TO VISIBILITY.

COZ001>005-013-030-031-281800-
...NORTHWEST COLORADO...

CITY           SKY/WX    TMP DP  RH WIND       PRES   REMARKS
CRAIG          FAIR      62  37  39 VRB5      30.34F
HAYDEN         FAIR      64  32  29 E7        30.35S
MEEKER         FAIR      62  37  39 CALM      30.35F
MOUNT WERNER   NOT AVBL
STEAMBOAT SPGS FAIR      61  35  37 CALM      30.37F
WALDEN           N/A     59  28  31 W3        30.48F
$$

COZ006>008-011-281800-
...WEST CENTRAL VALLEYS...

CITY           SKY/WX    TMP DP  RH WIND       PRES   REMARKS
GRAND JUNCTION FAIR      72  35  25 SE8       30.26F
MONTROSE       FAIR      67  36  31 NW3       30.33F
EAGLE          SUNNY     57  30  35 CALM      30.42F
RIFLE          FAIR      63  40  42 VRB3      30.31F
DELTA          NOT AVBL
NUCLA          NOT AVBL
$$

COZ017>023-064>068-281800-
...SOUTHWEST COLORADO...

CITY           SKY/WX    TMP DP  RH WIND       PRES   REMARKS
DURANGO        FAIR      66  33  29 VRB5      30.38S
CORTEZ         FAIR      68  40  35 SW8       30.32S
PAGOSA SPRINGS FAIR      64  26  24 CALM      30.44S
TELLURIDE      FAIR      62  33  32 CALM      30.51S
WOLF CREEK PAS FAIR      50  23  34 SE3       30.72S
$$

COZ009-010-012-014-032>034-037-058>063-281800-
...CENTRAL COLORADO...

CITY           SKY/WX    TMP DP  RH WIND       PRES   REMARKS
ASPEN          FAIR      63  34  33 N7        30.42S
BUENA VISTA    FAIR      64  28  26 CALM      30.49F
COPPER MTN     FAIR      61  19  20 SE10      30.71S
BERTHOUD PASS  FAIR      45  32  61 E20G28    30.74F
COTTONWOOD PAS FAIR      63  21  20 E6        30.60S
GUNNISON       FAIR      57  31  37 CALM      30.47F
KREMMLING      FAIR      55  23  28 CALM      30.46F
LEADVILLE      FAIR      56  23  27 S14       30.57F
MONARCH PASS   FAIR      48  27  43 NE15      30.81R
SALIDA         FAIR      63  30  28 CALM      30.54F
SUNLIGHT       FAIR      59  30  33 S3        30.64S
WILKERSON PASS FAIR      54  21  28 CALM      30.72S
$$

COZ069>075-281800-
...SAN LUIS VALLEY/SANGRE DE CRISTO MOUNTAINS...

CITY           SKY/WX    TMP DP  RH WIND       PRES   REMARKS
ALAMOSA        FAIR      62  30  29 CALM      30.45F
LA VETA PASS   FAIR      61  30  31 MISG      30.62R
SAGUACHE       NOT AVBL
$$

COZ035-036-038>040-281800-
...NORTHERN COLORADO FRONT RANGE...

CITY           SKY/WX    TMP DP  RH WIND       PRES   REMARKS
DENVER INTL AP FAIR      72  30  21 W3        30.36S
DMNS CITY PARK   N/A     71  31  23 N3        30.35S
AURORA         MOSUNNY   69  32  24 VRB3      30.38S
FRONT RANGE AP SUNNY     72  30  21 CALM      30.37S
ERIE MUNI ARPT FAIR      71  30  22 N6        30.35S
BOULDER MUN AP FAIR      72  32  23 N6        30.35F
CENTENNIAL     FAIR      71  31  22 VRB7      30.38S
BROOMFIELD     SUNNY     68  32  26 N7        30.38S
FORT COLLINS   FAIR      72  36  26 E8        30.34F
LONGMONT       FAIR      74  35  24 NE7       30.36S
$$

COZ041-046-047-076>085-087-088-281800-
...PIKES PEAK/PALMER DIVIDE AND SOUTHERN FOOTHILLS...

CITY           SKY/WX    TMP DP  RH WIND       PRES   REMARKS
COLO. SPRINGS  FAIR      77  23  13 VRB3      30.39S
A. F. ACADEMY  FAIR      73  26  17 VRB2      30.40S
SCHRIEVER AFB  NOT AVBL
ELLICOTT       NOT AVBL
FALCON         FAIR      73  23  15 E7        30.44S
FORT CARSON    FAIR      76  25  15 N5        30.36S
LIMON          FAIR      77  28  16 NE8       30.35S
MONUMENT HILL  FAIR      68  28  22 CALM      30.46S
TRINIDAD       FAIR      73  32  22 CALM      30.36S
$$

COZ042>045-048>051-090-091-281800-
...NORTHEAST COLORADO...

CITY           SKY/WX    TMP DP  RH WIND       PRES   REMARKS
GREELEY ARPT   FAIR      70  39  32 CALM      30.34F
AKRON          FAIR      71  37  28 VRB3      30.33S
BURLINGTON     FAIR      76  37  24 MISG      30.29S
WRAY           NOT AVBL
STERLING       FAIR      72  41  33 CALM      30.30S
HOLYOKE        FAIR      81  39  22 N12       30.28S
FORT MORGAN    FAIR      73  36  25 E7        30.33F
$$

COZ086-089-092>099-281800-
...SOUTHEAST COLORADO...

CITY           SKY/WX    TMP DP  RH WIND       PRES   REMARKS
PUEBLO         FAIR      75  32  20 S6        30.31R
LA JUNTA       FAIR      74  34  23 CALM      30.28S
LAMAR          FAIR      72  38  29 CALM      30.25S
SPRINGFIELD    NOT AVBL
$$



USA.gov is the U.S. government's official web portal to all federal, state and local government web resources and services.